Wind_Speed
9 9 12 14 18 22 23 21 21 22 22 21 20 18 17 15 15 15 15 14 12 9 7 5 4 4 4 5 6 7 8 9 10 11 12 13 14 15 16 17 17 17 19 20 22 23 24 25 26 27 27 28 29 30 30 30 30 29 29 29 29 28 27 26 25 26 27 27 26 25 23 23 25 28 30 30 30 31 31 31 31 32 33 33 33
10 12 13 16 21 23 22 21 21 21 21 19 18 18 16 14 14 13 14 13 11 9 7 5 4 3 4 5 6 7 8 9 10 11 12 13 14 15 16 16 16 16 18 20 22 23 24 25 26 27 27 28 29 30 31 31 31 31 31 31 31 30 30 29 28 29 29 28 28 27 26 27 29 32 32 31 31 32 32 32 32 33 34 34 34
13 15 16 20 23 22 21 21 21 21 20 19 17 17 15 13 12 12 13 12 11 9 6 4 2 2 3 4 6 7 8 9 10 11 12 13 14 15 16 16 15 16 17 19 21 22 23 25 26 27 28 29 30 30 31 31 32 32 32 32 32 32 32 32 31 31 30 30 29 29 30 31 33 34 34 33 32 33 33 33 33 34 35 35 35
15 18 20 22 23 21 21 20 21 21 20 19 17 16 15 13 10 10 11 11 10 8 5 3 1 1 2 4 6 8 9 10 11 12 13 14 15 15 15 15 15 16 17 18 20 21 23 25 26 27 28 29 30 30 31 31 32 32 32 32 32 33 33 33 33 32 31 31 30 31 32 33 34 34 34 33 32 33 34 34 34 35 36 37 37
17 20 22 24 22 21 21 20 20 20 19 19 17 16 16 13 9 9 10 10 9 7 5 3 2 2 3 5 7 8 9 11 12 13 14 15 15 15 15 15 15 16 17 18 19 21 22 24 25 27 27 28 29 30 30 31 31 31 32 32 32 33 33 34 33 33 33 32 32 32 33 33 34 34 34 33 32 33 34 35 35 35 36 37 37
19 21 22 22 21 20 20 19 19 19 18 18 17 15 15 13 9 9 10 10 9 8 6 4 3 4 4 6 7 9 10 11 12 13 15 15 16 15 15 14 15 16 17 18 19 20 22 23 25 26 27 28 29 29 30 30 31 31 32 32 32 33 33 34 33 34 34 34 34 34 34 35 35 35 35 34 33 33 35 36 36 37 37 38 38
21 21 21 19 18 19 19 19 18 17 17 17 16 15 14 12 8 7 9 9 9 8 7 6 5 4 5 6 7 9 10 11 12 13 15 16 16 15 14 14 15 16 17 18 19 20 21 22 24 25 26 27 28 29 30 30 30 31 31 32 32 33 33 33 33 33 34 34 35 35 35 35 36 36 36 35 35 35 36 36 37 38 38 38 38
20 20 19 18 18 19 19 18 17 16 16 16 15 14 14 11 8 7 9 9 9 9 8 7 6 6 6 6 6 8 9 10 11 13 14 15 15 14 14 15 16 17 17 18 19 20 21 22 23 24 26 28 28 29 29 29 30 30 31 31 32 32 31 31 31 31 32 32 33 34 34 35 35 35 35 35 35 36 36 37 37 38 38 38 38
18 17 17 17 19 19 18 18 17 16 16 16 15 14 14 12 10 9 10 10 10 10 9 9 8 8 7 7 7 7 9 10 11 12 13 15 15 14 14 16 17 17 18 19 20 20 21 21 22 24 27 28 29 29 29 30 30 30 30 31 31 31 31 31 30 30 30 31 31 32 33 33 34 34 34 34 34 34 35 36 37 37 38 39 39
17 16 16 17 18 18 18 18 18 17 17 16 16 15 15 14 12 12 12 12 12 11 11 11 11 10 10 9 8 8 8 9 11 12 13 14 14 14 14 16 17 18 18 19 20 21 22 22 23 25 27 28 29 29 29 30 30 30 30 30 30 30 31 31 31 31 31 31 31 32 33 34 34 34 35 34 34 34 34 35 36 37 37 38 40
16 16 16 17 18 19 19 19 18 18 18 17 16 16 15 15 14 14 14 13 13 13 13 13 12 12 12 11 11 10 10 9 10 11 12 13 14 14 14 16 18 19 19 20 21 22 22 23 24 26 27 28 29 30 30 31 31 31 31 30 31 31 31 32 32 32 32 32 33 34 34 35 36 36 36 36 36 36 36 36 36 37 37 38 39
18 18 18 19 20 20 19 19 18 18 18 17 17 16 16 15 15 15 15 14 14 15 15 14 14 14 14 14 13 13 12 11 10 11 12 13 14 14 15 17 19 20 20 21 22 23 23 23 24 26 28 29 30 30 31 31 32 32 32 32 32 32 33 33 34 34 34 34 34 35 35 36 37 37 37 38 38 38 38 37 37 37 38 39 39
21 21 21 21 21 21 20 19 19 19 18 17 17 16 15 15 15 15 15 15 16 16 16 16 16 16 16 16 16 15 15 14 12 11 11 12 13 14 15 17 19 20 21 21 22 23 24 24 25 27 29 30 31 31 32 32 33 33 33 33 33 33 34 35 36 36 36 36 36 36 36 37 37 38 39 39 40 40 40 39 39 39 39 39 40
25 25 24 24 23 22 21 21 21 20 19 18 17 16 16 16 15 15 15 15 15 15 17 18 18 18 18 17 17 17 17 16 15 14 12 11 12 14 15 18 20 21 21 22 23 24 25 25 26 27 29 30 32 32 33 33 34 35 34 34 34 34 35 36 37 37 38 38 39 39 39 39 38 38 39 40 41 41 41 41 41 41 41 41 41
27 28 28 27 26 25 23 23 23 21 20 20 19 18 17 16 16 15 15 15 14 15 16 17 18 19 20 19 19 19 19 18 17 17 15 12 12 13 15 18 20 22 22 23 25 26 26 26 27 28 29 31 32 33 34 34 35 35 35 35 35 35 36 36 37 38 39 39 40 41 41 42 41 41 41 40 41 41 42 42 42 42 42 42 43
30 31 31 30 28 27 26 25 24 23 23 23 22 20 19 19 18 18 18 18 18 18 19 19 20 20 21 21 21 20 20 20 19 19 18 15 13 14 15 18 21 22 22 24 26 27 27 28 28 29 30 31 32 33 34 35 36 36 37 37 37 37 37 38 38 39 40 40 41 42 43 44 44 44 44 43 42 42 42 43 43 44 43 43 44
33 34 34 32 31 29 29 28 27 26 26 26 24 23 22 22 23 22 22 22 22 23 24 24 24 24 23 23 23 23 22 21 21 21 20 17 16 15 15 18 22 23 23 25 27 29 29 29 29 30 31 32 33 34 35 36 36 37 38 38 39 39 39 40 40 41 41 42 42 43 45 46 47 47 47 46 45 44 43 44 44 45 45 45 45
35 35 35 34 33 32 32 32 31 30 29 28 26 26 26 26 26 26 25 25 26 27 27 27 28 27 27 26 25 25 25 24 23 23 23 21 19 17 17 19 22 24 24 25 28 30 30 30 31 32 32 32 34 35 36 37 38 39 40 40 40 40 41 41 42 42 43 43 44 44 45 47 48 50 51 51 50 48 46 46 47 47 47 47 47
37 37 37 37 36 36 35 34 34 33 32 31 29 29 30 29 29 28 28 27 28 29 29 30 30 30 30 30 28 27 27 26 24 24 25 23 22 20 19 20 23 25 25 26 29 31 31 31 32 33 33 33 35 36 37 38 40 41 42 42 42 42 43 43 44 44 46 46 46 46 47 48 49 50 52 54 54 53 51 50 50 49 49 49 49
39 39 39 39 39 38 38 37 37 36 35 34 33 33 33 32 31 31 30 30 30 30 31 32 32 33 32 32 31 30 29 29 27 26 25 25 24 23 22 22 25 26 26 27 30 32 33 33 33 34 34 35 36 37 38 40 42 43 43 44 45 45 45 45 45 46 47 49 50 50 50 50 51 51 52 54 56 56 56 55 54 52 51 50 50
40 40 41 41 40 40 40 40 39 38 38 38 37 37 36 35 34 33 32 31 31 31 32 32 33 33 33 33 32 31 31 31 30 28 27 26 26 26 25 26 28 28 28 30 32 33 34 34 34 35 36 36 37 38 39 41 43 44 45 46 47 47 47 47 47 48 49 50 52 53 54 55 55 55 55 56 56 57 58 58 57 56 55 54 53
41 41 42 43 42 42 41 40 40 40 40 40 40 39 39 38 36 34 34 33 32 32 32 33 33 33 33 33 33 33 33 33 32 31 29 28 27 27 28 30 31 32 32 33 35 36 36 35 36 36 37 38 38 39 41 42 44 45 47 48 49 49 49 50 50 50 51 52 53 55 56 57 58 58 59 59 59 58 58 58 59 59 58 57 57
44 43 43 44 45 43 42 41 41 41 41 41 41 41 41 39 37 35 35 34 33 33 34 34 34 34 34 34 35 34 34 34 34 32 31 30 28 28 29 32 34 35 35 37 38 38 37 37 37 37 38 39 40 40 42 43 45 47 48 50 51 51 52 52 52 52 53 54 55 56 58 59 59 60 60 60 60 60 59 58 59 60 60 59 59
48 47 46 46 46 45 43 42 42 42 42 42 42 42 42 40 38 37 36 35 35 35 36 36 36 35 35 35 35 34 34 34 34 33 32 31 31 30 31 33 35 36 37 39 40 40 39 38 39 39 40 41 42 42 43 45 47 48 50 51 52 53 54 54 54 55 55 56 57 58 59 60 61 62 62 61 62 61 60 60 60 60 60 60 60
51 51 50 48 47 46 45 44 45 45 45 44 44 44 43 42 41 39 38 37 37 37 38 38 38 37 37 37 36 36 35 34 33 32 32 32 32 33 33 35 37 37 39 41 42 42 41 40 40 41 42 43 43 43 44 46 47 49 52 53 54 55 55 56 57 57 58 58 59 60 61 62 64 64 63 63 64 63 62 62 62 61 61 61 61
53 54 54 52 50 49 48 48 48 48 47 47 47 46 45 44 43 42 40 40 39 39 40 40 39 38 38 38 38 38 37 36 34 34 33 34 35 35 36 38 39 39 41 43 44 44 43 42 42 42 44 44 44 44 45 47 48 50 52 54 56 57 57 58 59 60 61 60 60 61 63 65 66 65 65 65 65 64 64 64 63 63 62 63 63
56 55 55 55 54 52 52 51 51 51 50 49 49 48 47 46 45 44 43 42 41 41 42 41 40 40 40 40 40 40 40 38 37 36 36 37 38 38 39 40 40 41 43 44 45 45 45 44 44 44 45 46 46 46 47 48 49 51 53 55 57 58 59 60 61 63 63 61 61 62 64 67 68 67 67 67 66 66 67 65 64 64 64 65 65
59 58 57 57 56 55 56 55 54 54 52 52 51 50 49 48 47 45 45 45 45 44 44 43 43 43 43 42 42 43 42 41 40 39 39 40 41 41 42 42 42 43 45 46 47 47 47 46 46 47 47 48 48 49 50 50 52 53 54 56 58 60 61 62 63 65 64 62 62 63 66 69 69 69 70 69 68 69 68 66 65 65 66 67 66
63 61 60 60 59 58 58 58 57 56 55 54 53 53 52 50 49 48 48 48 48 47 47 46 46 46 45 45 45 45 45 44 43 42 43 44 44 44 44 44 45 46 46 48 49 50 49 48 48 49 50 50 51 52 53 53 54 55 57 58 60 61 63 64 65 66 66 64 64 66 69 71 72 73 72 70 70 70 68 66 65 66 68 67 65
66 65 64 63 63 61 61 60 59 58 58 57 57 56 55 54 53 52 51 50 50 50 50 49 49 49 48 48 48 49 49 48 46 45 45 46 47 46 46 46 48 48 47 49 51 52 51 50 51 51 52 53 54 55 56 56 57 58 59 60 62 63 65 66 67 68 67 67 67 69 72 73 74 75 73 72 71 70 68 67 67 69 70 66 66
68 68 67 66 66 65 64 63 62 60 60 60 60 60 59 58 56 55 55 54 53 53 52 52 53 52 51 51 51 52 52 51 49 48 47 48 49 48 48 49 50 50 49 50 52 53 53 52 53 53 54 55 56 58 58 59 60 61 62 63 64 65 66 67 68 69 69 69 70 72 73 74 75 75 74 73 72 70 69 68 68 71 69 66 69
66 69 69 68 68 67 67 67 65 63 62 62 62 63 62 61 60 59 59 58 57 57 56 55 55 55 53 53 53 54 54 53 52 50 50 50 51 51 50 51 52 52 51 52 54 55 54 54 54 55 56 57 58 59 60 61 63 64 64 65 66 67 68 69 70 71 71 71 72 74 75 75 75 74 74 73 72 71 70 69 70 71 68 67 73
57 63 67 69 70 70 70 70 69 66 65 65 65 65 64 64 64 63 62 61 60 61 60 58 58 58 56 56 55 55 56 56 55 53 52 52 53 53 53 53 54 54 53 54 56 56 56 56 56 56 57 58 60 61 62 64 65 66 66 67 69 70 70 71 71 72 72 73 74 75 75 75 74 74 74 73 71 70 70 70 71 69 66 70 77
47 52 59 65 70 72 73 73 72 71 69 69 68 67 66 67 66 65 63 62 63 63 63 62 61 61 60 59 58 58 59 60 59 57 55 55 55 56 56 56 56 56 55 55 57 57 57 57 57 58 59 61 62 63 64 65 66 67 68 69 71 72 72 72 73 73 74 73 73 74 74 73 73 74 74 72 70 70 69 70 70 68 69 75 80
44 46 50 56 63 69 74 76 76 75 74 73 71 70 70 70 69 66 65 65 65 65 65 64 63 62 63 62 61 62 62 63 62 60 58 57 58 58 58 58 57 57 57 57 58 58 58 59 59 59 61 63 64 65 65 66 67 68 70 71 73 73 73 73 74 74 75 73 71 72 72 71 72 73 72 71 70 69 69 69 69 69 73 77 78
46 47 49 51 55 61 68 73 77 78 77 76 75 75 74 74 72 70 69 69 68 67 66 65 64 64 64 64 64 65 65 65 64 62 60 59 59 59 59 59 58 58 58 58 58 59 60 60 60 61 63 65 66 67 67 68 69 70 72 73 74 74 74 74 75 75 75 73 70 69 70 70 71 72 70 70 70 70 71 72 71 73 76 77 78
48 50 52 52 52 55 61 67 72 76 78 78 79 78 78 77 76 74 73 73 71 70 68 67 66 66 67 67 67 67 68 68 66 64 62 61 61 60 60 60 60 60 60 59 60 61 62 62 62 63 65 67 69 69 69 70 71 72 74 74 74 74 74 75 75 74 72 70 67 68 69 70 70 70 69 70 70 72 74 75 75 76 77 78 78
49 51 53 53 53 53 56 59 63 68 73 77 80 80 80 79 78 77 77 77 75 73 71 71 70 70 70 70 70 69 70 71 69 67 65 63 62 62 62 61 62 62 62 61 62 63 64 65 65 65 67 69 71 71 71 72 73 75 75 74 73 73 74 74 72 69 68 67 67 68 69 69 70 70 69 70 71 73 76 76 76 77 79 79 78
50 50 51 52 53 53 53 55 56 58 63 69 75 79 81 81 80 80 80 79 78 76 76 76 75 74 74 74 73 72 72 73 73 71 69 67 65 64 64 64 64 64 64 64 64 66 67 68 66 66 68 70 70 71 73 74 75 76 76 74 72 72 72 70 67 65 65 67 67 68 68 68 69 69 69 70 73 75 76 77 77 78 79 78 78
51 50 50 51 52 53 53 54 55 56 59 62 66 71 75 78 81 82 82 81 80 80 80 80 80 79 78 79 78 75 74 75 75 75 73 71 68 67 67 67 67 67 66 66 67 69 71 70 68 68 69 70 71 74 75 76 77 77 76 73 71 69 66 63 62 62 64 66 65 66 67 67 67 68 69 72 74 75 76 77 78 79 78 77 78
53 52 51 51 51 52 53 54 56 57 58 60 61 63 65 69 75 78 80 81 82 83 84 84 83 82 83 83 82 79 78 77 77 78 78 76 73 71 71 71 72 71 69 69 70 72 73 72 70 69 70 72 73 74 77 79 78 74 69 65 62 60 58 57 58 60 62 62 61 62 65 66 67 69 71 73 75 76 77 78 79 78 77 77 80
56 55 55 53 52 52 52 53 55 57 58 59 59 59 60 62 66 70 73 77 82 85 86 86 85 84 86 87 85 83 82 80 79 80 80 79 78 76 75 76 75 73 71 71 72 75 75 73 71 71 72 73 74 78 81 78 69 60 54 52 53 53 54 55 58 59 60 59 59 62 64 65 68 70 72 74 75 77 78 79 78 77 76 78 82
57 57 56 55 54 53 53 53 55 57 58 59 59 58 59 59 60 62 65 70 76 80 84 86 86 86 88 89 89 87 85 83 83 83 83 82 81 80 79 79 78 76 74 73 75 77 76 73 72 72 72 74 77 78 73 61 50 47 48 49 51 52 54 57 58 59 61 61 61 62 64 66 69 71 73 75 76 78 79 79 77 76 76 80 85
58 57 56 56 56 55 55 56 57 57 58 59 59 59 59 58 58 58 60 63 68 73 77 81 83 84 86 88 89 89 88 88 88 88 86 85 82 80 80 81 80 77 75 75 76 77 75 73 73 72 72 74 73 67 55 45 44 49 51 51 52 53 55 58 59 59 62 62 61 62 65 68 71 72 74 76 78 79 79 78 76 75 78 83 87
59 58 58 57 56 56 57 58 58 59 59 58 58 58 59 58 58 58 58 60 63 67 71 74 77 80 82 85 87 87 88 90 90 90 90 88 84 81 81 82 80 77 76 76 77 76 75 74 73 69 65 62 59 55 52 49 50 53 54 53 53 54 55 57 59 60 61 61 62 64 68 70 72 74 75 77 78 79 78 76 75 77 81 85 88
61 60 59 57 57 57 57 59 59 59 59 58 57 56 57 57 58 57 57 59 60 63 66 69 72 75 78 81 83 84 85 88 90 91 91 89 86 82 82 82 80 78 78 77 76 77 76 74 71 65 58 55 53 54 57 56 54 55 57 55 54 56 58 59 59 59 60 62 64 68 70 72 73 75 76 77 78 78 77 75 75 79 83 86 89
63 62 60 58 58 58 58 59 60 60 59 59 57 56 55 55 55 56 56 57 59 61 63 66 69 71 74 76 78 79 81 84 86 89 89 89 86 83 81 80 79 78 78 76 75 75 74 72 71 68 62 58 56 55 57 59 58 59 60 58 58 60 62 62 61 62 63 66 69 71 72 74 75 76 77 78 78 77 74 74 77 81 84 87 91
65 63 61 60 59 59 59 59 60 60 60 60 59 57 55 54 53 53 53 55 57 59 62 64 66 68 70 72 73 74 76 78 80 83 84 84 83 81 78 78 78 78 77 75 73 72 70 68 68 66 61 58 57 56 60 66 67 67 65 64 64 66 67 67 67 67 68 70 73 74 75 76 76 76 77 78 76 74 74 75 79 82 85 89 93
66 65 63 61 61 61 60 60 60 61 61 60 60 59 57 54 52 51 51 51 53 55 57 60 62 64 65 67 68 70 72 74 75 76 76 76 77 77 75 75 75 76 74 72 69 66 65 63 63 62 63 66 65 63 65 70 72 70 68 67 68 70 72 71 70 70 72 74 76 76 77 77 77 77 77 76 74 73 74 76 80 83 87 91 95
67 65 63 62 62 62 61 60 60 59 60 60 60 59 58 55 51 49 47 47 46 46 48 49 52 54 58 60 63 66 69 71 70 67 67 68 69 68 67 66 66 67 67 66 67 66 64 62 62 62 66 69 69 66 66 67 67 67 67 68 70 73 73 73 73 74 75 77 78 78 77 77 77 77 75 73 72 73 75 78 81 85 89 92 95
67 64 63 63 63 62 61 60 58 58 59 60 60 59 58 55 51 47 42 37 32 28 25 25 27 32 39 46 53 59 64 66 63 58 57 58 59 61 62 61 61 62 61 61 66 71 68 63 62 64 66 67 69 69 67 65 65 66 68 70 72 74 75 75 76 77 78 78 78 78 77 76 76 75 73 71 72 74 76 79 82 86 90 92 94
Wind_Direction
238 208 191 186 184 180 179 181 178 172 169 168 166 161 153 148 150 152 154 154 152 149 141 128 109 85 61 38 30 26 21 16 11 9 10 14 17 18 20 20 19 15 12 11 12 12 13 12 13 13 13 13 13 14 15 15 16 18 18 17 16 13 10 6 3 1 1 359 357 355 355 354 353 351 348 347 347 348 349 351 351 351 353 354 353
217 189 183 184 183 182 181 181 180 176 172 170 170 166 159 155 156 158 160 161 162 160 155 146 125 92 60 37 28 23 17 11 7 5 7 10 13 15 16 15 13 9 8 9 9 9 8 8 9 9 10 10 11 12 13 12 13 15 16 16 16 14 12 8 5 2 359 356 353 350 348 346 345 344 343 343 344 347 349 349 349 350 351 353 352
198 179 177 182 183 183 183 182 181 179 176 173 173 172 169 167 167 168 168 168 170 171 168 162 145 94 53 30 22 17 12 6 3 2 4 7 9 12 12 10 6 3 4 6 6 5 4 5 6 6 7 8 8 10 11 10 10 12 13 14 13 12 12 10 7 4 0 356 352 348 345 343 342 341 341 340 341 344 346 347 347 348 350 351 351
187 175 175 179 183 186 187 186 184 183 180 178 176 177 178 178 179 179 176 175 176 179 180 187 198 0 9 10 10 9 7 4 0 359 1 4 6 8 8 4 359 357 359 2 2 2 2 3 4 4 5 5 6 8 8 7 7 8 9 10 10 10 10 9 7 5 1 358 354 350 347 344 343 342 341 339 338 340 343 346 346 347 348 350 350
180 172 173 178 185 189 191 191 190 187 186 184 183 183 184 184 185 185 181 181 182 187 197 217 260 311 339 352 357 1 2 1 358 356 357 1 3 4 4 358 353 352 354 357 358 359 0 1 2 2 3 3 4 6 6 5 4 5 6 6 7 8 8 7 6 3 1 358 356 353 351 348 346 345 343 340 338 339 341 343 344 346 347 348 348
176 171 175 182 188 192 195 195 194 192 191 191 192 192 190 190 191 189 186 187 190 197 209 229 264 297 323 340 347 352 356 357 356 355 356 359 0 359 357 352 348 348 351 354 355 357 358 0 1 1 1 2 3 4 5 4 2 2 2 3 5 6 5 4 3 1 360 358 356 354 352 351 349 347 345 343 340 339 340 342 342 344 345 346 346
175 173 178 186 192 196 197 197 196 195 195 198 201 201 200 199 203 199 196 197 198 206 218 232 255 278 304 324 336 342 347 350 351 351 354 358 359 355 351 346 342 343 347 350 351 353 355 358 0 0 360 -0 1 4 4 2 1 1 -0 0 3 3 2 1 -0 359 358 356 355 354 352 351 350 348 346 344 342 340 340 341 341 341 342 343 344
177 176 182 189 195 198 198 197 197 197 197 202 207 209 208 211 220 216 208 209 210 216 228 239 252 266 284 302 319 329 336 341 344 346 351 356 358 354 345 339 337 339 343 345 346 348 351 355 359 359 359 358 359 2 2 1 1 -0 358 359 0 359 358 357 357 357 356 355 354 353 352 351 350 349 347 345 344 342 340 339 339 339 339 340 341
182 183 187 191 196 199 199 199 199 200 202 205 209 212 213 217 226 223 217 218 219 224 234 245 253 262 272 283 297 311 322 330 335 340 347 353 357 353 342 335 333 335 338 340 341 344 346 349 351 352 354 355 356 358 360 -0 -0 359 358 358 357 356 355 354 354 354 354 354 353 352 351 350 349 348 347 345 344 342 340 338 338 337 337 338 339
189 190 193 196 199 202 202 203 202 204 207 209 211 212 213 218 225 225 224 223 225 229 236 245 254 261 268 275 282 291 305 318 327 333 341 349 354 351 340 333 330 330 334 337 337 340 342 343 342 342 346 350 353 355 356 357 357 357 357 357 355 353 353 352 352 352 352 352 352 352 351 350 349 347 346 345 344 343 341 338 337 336 336 336 337
193 197 199 200 203 206 207 207 206 209 212 213 214 215 216 220 224 225 226 228 231 234 238 244 252 260 268 272 275 281 290 304 316 325 333 343 350 348 337 331 328 328 332 335 335 337 340 342 341 340 341 344 348 351 353 354 354 355 355 355 354 353 352 351 350 350 351 351 351 351 351 350 348 346 345 343 343 342 341 339 337 336 336 335 335
197 200 203 205 206 206 206 206 208 210 213 215 217 218 219 222 224 225 227 231 236 241 245 248 251 258 266 271 274 277 284 293 304 314 325 336 345 344 335 330 327 327 333 335 334 334 338 340 340 340 339 340 344 347 349 351 352 352 353 353 352 352 351 349 348 348 349 350 351 350 350 349 347 346 344 343 342 342 341 339 337 336 335 335 334
199 202 205 208 209 206 203 203 206 208 210 214 217 219 220 222 226 229 232 235 240 245 249 253 254 256 260 266 271 276 280 287 294 303 314 328 338 339 333 327 325 325 331 333 331 332 335 338 338 338 338 338 340 344 346 348 349 349 350 350 350 350 349 348 347 347 348 348 349 349 348 347 346 345 344 343 342 342 341 339 337 336 335 334 333
204 204 207 210 210 207 203 203 205 205 207 212 215 218 220 225 229 234 238 243 247 250 252 255 258 258 259 261 266 273 278 283 288 295 304 318 329 332 329 324 321 322 329 331 329 329 332 335 336 336 336 336 338 341 343 346 346 346 347 347 348 348 348 347 346 346 346 346 347 346 346 345 345 345 344 343 342 342 341 340 338 336 334 333 332
209 209 211 212 212 210 207 207 208 206 208 212 216 218 222 227 233 238 244 250 254 258 259 260 259 259 259 260 263 267 273 279 285 291 297 308 318 323 324 321 318 319 326 328 326 326 329 333 334 334 335 335 336 339 341 342 343 343 343 344 345 345 345 345 345 344 344 345 345 344 343 343 342 343 343 343 343 342 341 340 339 336 334 332 331
214 214 216 215 215 213 213 214 215 213 213 216 221 225 229 233 238 243 249 254 259 263 267 269 267 265 263 263 263 266 270 276 282 288 293 300 307 314 317 317 314 316 323 326 324 323 326 330 332 333 333 334 335 337 338 339 340 340 340 342 342 343 343 343 343 342 342 343 343 342 342 341 340 340 341 342 342 342 341 340 338 337 335 333 331
219 218 220 220 219 218 218 219 221 220 220 223 228 233 236 239 242 245 250 255 259 262 265 267 269 270 269 268 266 267 270 274 279 285 291 295 299 304 309 310 309 312 319 322 321 321 324 328 330 331 332 333 334 335 335 336 337 338 338 339 340 340 340 340 340 340 340 340 340 340 340 340 339 338 338 339 340 340 340 338 337 337 336 334 331
225 224 224 224 224 223 223 223 225 226 228 231 234 237 240 244 247 249 252 256 260 262 264 266 267 269 270 270 269 270 271 275 279 284 289 293 295 297 302 303 303 308 315 318 318 319 322 325 328 329 330 331 333 332 333 333 334 334 335 336 337 337 337 337 337 337 337 338 338 338 339 339 338 338 337 337 337 338 338 337 336 336 335 334 332
229 230 229 228 227 227 227 228 229 231 233 236 238 240 243 247 250 253 256 258 260 262 264 266 267 267 268 269 270 271 272 275 278 282 288 293 293 293 297 298 299 304 311 313 314 316 319 322 325 326 327 329 330 330 330 331 331 331 331 332 333 333 334 335 335 335 335 335 335 336 337 337 337 337 336 335 335 336 336 336 335 335 334 333 331
232 233 232 231 230 230 230 231 233 234 236 239 242 243 245 248 251 254 256 257 258 260 262 263 265 266 265 265 267 270 271 274 277 280 286 291 292 292 294 294 297 303 307 309 310 312 315 318 322 323 324 326 328 328 328 329 330 330 329 329 329 330 331 332 332 333 333 332 333 333 334 335 336 336 335 335 334 334 334 334 333 333 333 332 331
234 235 235 234 232 232 232 232 235 237 238 241 243 245 247 249 250 252 253 254 255 257 259 261 262 263 263 263 264 267 270 272 275 278 281 287 290 292 293 293 297 303 306 306 306 309 312 315 318 320 322 324 326 326 327 327 328 328 327 327 328 328 328 329 329 330 330 331 331 331 333 334 335 335 335 335 334 333 333 332 331 331 331 331 330
234 236 238 239 237 235 235 235 236 238 239 241 243 245 247 248 249 250 251 251 253 255 258 259 260 260 262 262 264 266 269 272 274 276 277 281 287 291 291 291 296 302 304 303 304 306 309 313 316 318 319 321 322 324 326 326 326 326 325 326 326 326 326 326 326 327 328 329 330 330 331 332 333 333 333 333 333 333 332 331 330 329 329 330 329
236 236 238 241 241 239 238 239 239 240 240 241 243 245 246 247 248 248 249 250 252 254 257 258 260 260 261 263 265 267 271 273 274 277 277 277 282 287 288 289 293 299 302 301 302 304 307 311 313 315 317 318 320 322 323 324 324 324 324 323 324 324 324 324 323 324 325 327 328 329 330 330 331 331 331 331 331 331 331 330 329 328 328 328 328
238 238 237 239 242 243 242 241 241 241 241 241 242 244 247 248 248 248 248 250 252 254 256 258 260 261 262 263 266 269 271 273 276 279 280 277 278 281 284 287 291 297 299 299 300 303 306 309 311 313 315 316 317 319 320 322 322 322 321 321 321 321 321 321 321 321 322 324 326 327 328 328 329 329 329 329 330 330 330 329 328 328 328 328 328
237 238 238 238 240 243 244 244 243 243 243 243 244 245 247 248 249 250 250 252 253 254 257 258 260 261 263 265 267 268 270 273 276 279 280 279 277 278 282 286 290 294 296 297 299 301 304 306 309 310 312 313 314 315 317 318 319 319 318 318 318 319 319 319 320 320 321 322 323 325 326 327 327 328 328 329 330 329 329 329 329 328 328 327 327
238 238 238 238 238 240 241 243 244 244 244 245 246 247 248 249 251 252 252 253 254 256 257 258 259 262 263 266 268 269 271 273 275 276 278 279 278 279 282 285 289 292 294 295 297 300 302 304 306 308 309 310 311 312 313 315 316 316 316 316 316 317 318 319 319 320 320 320 321 323 325 326 327 328 328 329 329 329 329 329 329 328 328 328 327
240 240 240 241 240 240 240 241 242 244 245 246 247 248 249 250 251 252 253 253 254 255 256 258 259 261 263 265 268 269 271 273 275 276 278 279 280 281 282 285 288 291 292 294 296 298 299 301 304 306 306 307 308 310 311 312 313 313 314 314 315 316 317 318 319 320 321 320 320 322 324 326 327 328 329 329 329 329 329 329 329 328 328 328 328
240 241 242 243 242 242 242 242 242 243 244 246 248 249 250 250 251 251 252 254 254 255 256 258 259 260 262 264 266 269 271 273 274 276 277 278 280 281 283 285 287 289 291 293 295 296 298 300 302 303 304 304 306 307 309 310 311 311 312 313 315 316 316 317 318 320 321 320 320 321 324 327 327 328 328 328 329 329 329 329 328 327 327 327 327
239 239 241 243 244 244 244 244 244 245 246 247 248 250 250 251 251 252 252 254 256 256 257 258 259 260 262 263 265 267 269 271 273 274 275 277 279 281 283 284 286 288 290 292 293 294 296 299 301 302 302 303 304 306 307 309 310 311 312 313 314 314 315 315 317 319 320 320 319 321 324 326 327 327 328 328 328 328 328 328 327 326 326 326 326
238 239 239 241 243 244 245 245 245 245 247 248 250 250 251 251 252 252 253 254 256 257 258 259 259 260 262 264 265 266 268 270 271 273 274 276 278 279 281 283 285 286 289 290 292 293 295 297 299 300 301 302 303 304 306 308 310 311 311 312 313 313 314 315 317 319 320 319 319 320 323 324 326 326 327 327 327 327 327 326 326 326 325 325 326
238 239 240 240 242 243 244 245 246 245 246 247 248 249 250 251 252 252 253 253 255 256 258 259 260 261 262 263 264 266 268 269 270 272 273 274 276 278 280 282 284 285 287 289 290 292 294 295 297 299 300 301 302 303 305 307 309 310 311 311 312 313 314 315 317 319 319 319 319 320 321 322 324 325 326 326 326 326 325 326 326 326 325 325 328
239 239 240 241 242 244 245 246 246 246 246 247 248 249 249 250 251 252 253 253 254 255 256 258 260 261 262 262 263 265 267 269 270 271 272 273 275 277 279 280 282 284 286 287 288 290 292 294 295 297 299 300 301 302 304 306 308 309 310 310 311 313 314 315 317 318 318 318 318 319 320 321 322 323 324 325 325 325 325 326 327 326 325 326 328
244 242 240 240 242 243 245 246 246 246 246 247 248 249 250 251 251 251 252 253 254 255 256 257 258 259 260 261 262 264 267 268 269 270 270 272 274 275 276 279 281 283 285 285 286 288 290 292 294 296 298 299 300 302 303 305 307 307 308 309 311 312 314 315 316 316 317 317 317 318 319 319 321 322 323 323 324 325 326 327 328 327 326 326 327
249 246 243 241 240 241 242 243 245 245 245 246 247 248 249 250 251 251 252 253 254 255 256 256 257 258 259 260 262 263 265 266 267 268 270 271 272 274 276 278 280 281 283 283 284 286 289 291 293 296 298 299 300 302 303 304 305 306 306 308 310 312 313 314 314 314 315 315 316 317 317 318 320 321 321 322 324 325 326 328 329 328 325 324 325
250 249 246 243 242 241 241 241 242 243 244 245 246 247 248 249 250 250 251 253 253 254 255 256 257 259 260 261 262 262 263 265 266 267 268 270 272 273 275 277 278 280 282 282 283 285 288 290 294 296 298 299 300 300 301 302 303 304 305 307 309 311 312 312 312 313 313 314 314 315 316 317 319 320 322 324 325 325 326 328 328 326 324 323 325
251 250 248 245 244 243 242 242 242 243 243 244 245 245 246 247 248 248 249 251 252 254 255 256 257 258 260 261 262 262 263 264 265 267 267 269 270 272 274 276 277 279 281 281 282 284 287 291 294 296 297 298 298 298 299 301 302 303 305 307 308 310 310 310 311 312 312 313 313 313 315 318 320 321 323 325 325 324 325 326 326 324 324 324 326
252 251 250 247 246 245 244 243 243 244 244 245 245 246 246 247 248 248 249 250 251 252 254 255 255 256 258 259 261 262 263 264 265 266 267 268 269 271 273 275 276 278 279 279 281 285 288 290 292 294 296 297 297 297 299 300 302 303 305 306 308 309 308 308 310 311 311 311 312 314 317 320 322 323 325 325 324 324 324 325 325 324 325 325 326
251 252 253 251 249 249 249 247 246 247 246 246 246 247 247 248 249 249 250 251 252 252 253 254 255 255 256 258 259 261 263 264 265 266 266 267 269 271 273 274 276 277 278 278 281 285 287 289 291 293 295 296 296 297 298 300 302 304 305 306 307 307 306 308 309 309 309 311 313 316 319 321 323 324 324 323 322 323 323 324 324 324 324 325 327
250 251 253 255 253 252 252 252 251 250 250 248 247 247 247 248 249 250 251 252 253 253 254 255 255 256 256 257 258 259 261 263 265 266 267 268 269 270 272 274 276 277 276 278 282 285 286 287 290 293 295 296 296 296 298 300 303 304 305 306 305 305 305 306 307 307 309 313 315 318 321 322 323 323 322 321 321 322 322 323 323 323 324 326 327
250 250 251 253 255 256 256 255 254 252 252 251 249 248 248 248 249 249 250 252 253 254 254 255 255 256 257 257 257 258 259 262 264 266 267 268 269 271 272 274 275 275 276 278 282 284 285 287 290 293 295 295 295 296 298 301 303 304 304 304 304 304 304 305 306 308 311 314 316 318 320 320 321 320 319 319 319 321 322 322 322 323 324 327 327
249 250 250 252 254 256 258 259 258 256 255 254 253 252 251 251 250 250 250 251 252 253 254 254 255 256 257 258 258 259 259 261 263 266 268 269 270 271 272 273 274 275 277 279 282 283 285 287 290 293 294 295 295 295 298 300 303 305 305 304 303 302 302 304 307 310 313 315 316 315 316 317 318 318 317 318 319 320 321 321 322 323 325 327 327
249 249 251 252 253 254 256 258 260 261 260 259 258 256 254 253 253 253 252 252 252 252 253 254 255 256 257 259 259 260 260 261 262 264 266 268 269 270 271 272 274 276 278 280 282 283 285 287 291 293 294 294 295 296 299 302 305 306 305 303 301 301 302 305 308 311 314 316 314 313 315 317 316 316 316 317 319 320 320 320 321 324 326 327 326
251 250 251 252 254 254 253 254 257 259 261 262 262 261 259 257 255 255 254 254 254 254 254 255 255 255 256 258 259 260 261 261 261 262 263 264 267 269 271 273 274 275 277 279 281 282 284 288 291 292 293 294 296 298 301 303 306 306 303 301 300 302 305 308 310 313 316 316 315 314 315 315 314 315 315 316 318 319 319 320 321 324 325 325 325
254 253 252 252 253 254 254 254 254 255 257 260 262 263 262 261 258 256 255 255 255 255 255 256 256 256 256 257 258 260 260 260 261 261 262 263 264 267 269 271 272 273 276 278 280 281 284 287 288 290 295 298 300 302 302 303 305 305 302 301 303 305 308 309 311 315 316 316 315 314 313 313 313 314 314 315 317 318 318 319 322 324 324 324 325
256 256 255 254 255 256 256 256 256 256 255 256 258 260 262 262 260 258 257 255 255 255 255 256 257 257 257 257 258 258 259 260 260 261 262 263 264 265 267 268 270 272 275 276 278 281 283 284 286 291 296 297 297 298 295 294 299 303 304 304 305 307 309 311 313 315 315 313 311 311 311 312 312 312 313 315 317 317 317 319 322 322 323 324 325
256 257 257 257 258 260 260 260 260 260 259 258 257 257 258 259 259 258 257 257 256 255 256 256 257 257 257 257 258 258 258 259 260 260 261 263 263 264 265 267 269 271 274 275 277 278 279 281 285 290 287 283 286 289 285 283 290 300 305 306 306 307 310 312 312 311 309 308 309 310 311 311 311 311 313 315 315 316 317 319 321 321 322 324 325
256 256 257 257 258 260 261 262 263 263 263 262 261 259 259 258 258 257 257 256 256 256 256 256 256 256 256 257 257 257 257 258 259 260 262 263 264 264 265 267 269 270 272 274 276 277 281 285 288 288 283 279 282 282 274 274 285 296 302 304 305 307 309 310 309 308 307 307 309 311 311 310 311 312 313 314 315 316 317 319 320 321 323 324 325
255 256 257 257 258 259 260 261 262 263 263 264 264 263 263 261 260 258 256 255 255 255 255 255 256 258 259 260 260 260 260 260 260 261 263 264 266 266 267 268 269 271 273 275 278 283 287 288 285 283 281 279 279 274 267 269 277 287 293 298 302 305 307 307 307 306 306 308 310 310 310 310 311 312 313 314 314 316 318 319 320 322 324 325 325
255 256 257 258 258 259 259 260 261 262 263 263 264 264 265 265 264 260 256 256 257 257 256 257 258 259 260 262 263 264 263 263 262 262 263 264 265 267 267 268 270 272 274 278 280 283 282 279 276 275 276 276 275 272 268 267 271 278 286 292 297 301 304 305 305 305 306 307 309 309 309 310 311 312 313 313 314 317 319 320 321 322 324 324 325
254 255 256 257 258 259 259 260 260 261 262 262 263 265 266 266 265 262 259 260 262 262 261 261 261 262 263 263 263 263 263 263 263 264 264 264 265 266 267 268 269 271 274 279 281 279 275 273 273 274 274 273 271 271 269 266 268 275 283 288 293 298 301 302 302 303 304 306 307 308 309 309 310 311 312 313 315 318 320 321 321 323 324 324 325
253 254 254 254 255 256 257 259 261 261 261 261 262 264 266 267 267 264 261 259 256 254 257 263 271 276 275 272 268 265 263 263 264 264 263 262 262 263 264 264 265 268 271 273 275 274 271 271 273 274 272 269 268 268 267 265 267 274 280 285 292 297 298 298 300 301 302 305 306 307 308 309 310 311 312 314 317 319 320 321 321 322 323 324 325
Height
10961 10962 10963 10965 10966 10967 10969 10971 10972 10973 10974 10975 10976 10977 10978 10979 10980 10980 10981 10981 10981 10982 10982 10982 10982 10983 10983 10982 10982 10982 10982 10982 10982 10982 10981 10981 10981 10980 10980 10979 10978 10977 10976 10975 10974 10973 10973 10972 10972 10971 10971 10970 10969 10968 10966 10965 10963 10961 10959 10957 10955 10954 10953 10951 10949 10947 10946 10944 10943 10942 10940 10939 10937 10935 10933 10932 10930 10929 10928 10926 10925 10923 10921 10919 10917
10960 10961 10962 10964 10966 10968 10969 10971 10972 10973 10975 10976 10977 10978 10979 10980 10980 10981 10981 10981 10982 10982 10982 10983 10983 10983 10983 10983 10983 10983 10983 10983 10982 10982 10981 10981 10981 10980 10980 10980 10979 10978 10976 10975 10974 10974 10973 10972 10972 10972 10971 10970 10969 10968 10966 10965 10963 10961 10959 10957 10956 10954 10953 10951 10949 10948 10946 10945 10944 10942 10941 10939 10937 10935 10933 10931 10929 10928 10927 10925 10924 10922 10920 10918 10916
10958 10960 10962 10964 10966 10968 10969 10971 10972 10974 10975 10976 10977 10979 10980 10980 10981 10981 10981 10982 10982 10982 10983 10983 10983 10983 10983 10983 10983 10983 10983 10983 10982 10982 10982 10981 10981 10981 10981 10980 10979 10978 10977 10976 10975 10974 10974 10973 10973 10973 10972 10971 10969 10968 10966 10965 10963 10961 10959 10958 10956 10954 10953 10951 10949 10948 10946 10945 10944 10942 10940 10938 10936 10934 10931 10929 10928 10927 10925 10924 10922 10920 10918 10917 10915
10958 10959 10961 10964 10966 10968 10969 10970 10972 10973 10975 10976 10977 10979 10980 10981 10981 10982 10982 10982 10982 10983 10983 10983 10983 10983 10984 10983 10983 10983 10983 10983 10982 10982 10982 10982 10982 10982 10981 10981 10979 10978 10978 10977 10976 10976 10975 10974 10974 10973 10972 10971 10970 10968 10966 10965 10963 10961 10960 10958 10956 10954 10952 10951 10949 10947 10946 10945 10943 10941 10939 10937 10935 10933 10930 10928 10927 10925 10924 10923 10921 10919 10916 10915 10913
10958 10959 10961 10964 10966 10968 10969 10970 10971 10973 10975 10976 10978 10978 10979 10980 10981 10982 10982 10982 10982 10983 10983 10983 10983 10983 10983 10983 10983 10983 10983 10983 10982 10982 10982 10982 10982 10982 10982 10981 10980 10979 10978 10978 10977 10976 10976 10975 10974 10973 10972 10971 10970 10968 10967 10965 10964 10962 10960 10958 10956 10954 10952 10950 10949 10948 10946 10944 10942 10940 10938 10936 10934 10932 10930 10928 10926 10924 10923 10921 10920 10918 10916 10913 10911
10957 10959 10961 10964 10966 10968 10969 10970 10972 10973 10975 10977 10978 10979 10979 10980 10981 10981 10982 10982 10982 10982 10982 10983 10983 10983 10983 10983 10983 10983 10983 10983 10982 10982 10982 10983 10983 10982 10982 10981 10980 10979 10979 10978 10978 10977 10976 10975 10974 10973 10972 10971 10970 10968 10967 10966 10964 10962 10960 10958 10956 10954 10952 10951 10949 10948 10946 10944 10941 10939 10937 10935 10933 10931 10929 10927 10925 10923 10921 10919 10917 10916 10914 10912 10909
10956 10958 10961 10963 10966 10967 10969 10970 10972 10974 10975 10977 10978 10979 10979 10980 10981 10981 10981 10982 10982 10982 10982 10982 10982 10982 10982 10983 10983 10983 10983 10983 10983 10983 10983 10983 10983 10983 10982 10981 10980 10979 10979 10978 10978 10977 10976 10975 10974 10973 10972 10971 10970 10968 10967 10966 10964 10962 10960 10958 10955 10954 10952 10951 10950 10948 10946 10943 10941 10939 10936 10934 10932 10930 10928 10926 10924 10921 10920 10918 10916 10914 10912 10910 10908
10956 10958 10960 10962 10965 10967 10968 10970 10972 10973 10975 10977 10978 10979 10979 10980 10981 10981 10981 10981 10982 10982 10982 10982 10982 10982 10982 10982 10982 10982 10982 10983 10983 10983 10983 10983 10983 10983 10982 10981 10980 10979 10979 10978 10977 10977 10976 10975 10974 10973 10972 10971 10969 10968 10966 10965 10964 10962 10960 10958 10955 10954 10953 10952 10950 10949 10946 10944 10941 10939 10936 10934 10932 10930 10928 10926 10924 10921 10918 10917 10915 10913 10910 10908 10906
10956 10958 10960 10962 10964 10966 10968 10969 10971 10973 10975 10976 10977 10978 10979 10979 10980 10980 10980 10981 10981 10981 10981 10981 10981 10981 10981 10981 10982 10982 10982 10982 10982 10982 10983 10983 10983 10983 10981 10980 10979 10979 10978 10977 10977 10976 10975 10974 10973 10972 10971 10970 10968 10967 10965 10964 10963 10962 10960 10958 10956 10955 10953 10952 10950 10949 10947 10944 10942 10939 10937 10934 10932 10929 10927 10925 10923 10921 10919 10916 10914 10912 10909 10906 10903
10956 10958 10960 10961 10963 10965 10967 10968 10970 10972 10973 10974 10975 10976 10977 10978 10978 10978 10979 10979 10980 10980 10980 10980 10980 10980 10980 10981 10981 10981 10981 10981 10982 10982 10982 10982 10982 10982 10981 10980 10979 10978 10977 10977 10976 10975 10975 10974 10972 10971 10970 10969 10968 10966 10964 10963 10962 10961 10959 10958 10956 10954 10953 10951 10950 10948 10946 10943 10941 10939 10936 10933 10931 10928 10926 10924 10922 10920 10918 10915 10913 10910 10908 10905 10901
10955 10957 10959 10961 10962 10964 10965 10967 10969 10970 10971 10972 10973 10974 10975 10976 10977 10977 10977 10978 10978 10978 10979 10979 10979 10980 10980 10980 10980 10980 10980 10980 10981 10981 10981 10982 10982 10981 10980 10979 10978 10977 10977 10976 10975 10974 10974 10973 10972 10970 10969 10967 10966 10965 10963 10962 10961 10960 10958 10957 10955 10953 10951 10950 10948 10946 10944 10942 10939 10937 10935 10932 10930 10927 10924 10922 10920 10918 10916 10913 10911 10909 10906 10903 10900
10954 10956 10958 10959 10961 10962 10964 10966 10967 10968 10969 10971 10972 10972 10973 10974 10975 10976 10976 10977 10977 10977 10977 10978 10978 10978 10978 10979 10979 10979 10979 10979 10980 10980 10980 10980 10980 10980 10979 10978 10977 10976 10976 10975 10974 10973 10972 10972 10971 10969 10967 10966 10965 10963 10962 10961 10959 10958 10956 10955 10953 10951 10949 10947 10945 10943 10941 10939 10937 10935 10933 10931 10929 10926 10924 10921 10918 10916 10914 10911 10909 10906 10904 10901 10898
10951 10954 10956 10957 10959 10960 10962 10964 10965 10966 10968 10969 10970 10970 10971 10972 10973 10974 10975 10976 10976 10976 10976 10976 10976 10977 10977 10977 10978 10978 10978 10978 10978 10978 10979 10979 10979 10978 10978 10976 10975 10974 10974 10973 10972 10971 10971 10970 10969 10968 10966 10964 10963 10961 10960 10958 10957 10956 10954 10953 10951 10949 10947 10945 10942 10940 10938 10936 10934 10933 10931 10929 10927 10925 10922 10920 10917 10915 10912 10909 10906 10903 10900 10898 10895
10949 10951 10953 10954 10956 10958 10960 10961 10962 10964 10965 10966 10968 10968 10969 10970 10971 10971 10972 10973 10974 10975 10975 10975 10975 10975 10975 10976 10976 10976 10977 10977 10977 10977 10977 10977 10977 10977 10976 10975 10973 10973 10973 10972 10970 10969 10969 10969 10968 10966 10965 10963 10961 10959 10958 10956 10955 10954 10952 10951 10949 10947 10945 10943 10940 10938 10935 10933 10931 10930 10928 10927 10925 10924 10921 10918 10915 10913 10910 10906 10903 10900 10897 10894 10892
10946 10948 10949 10951 10953 10956 10958 10959 10960 10961 10963 10964 10965 10966 10967 10968 10969 10970 10970 10971 10972 10973 10973 10974 10974 10973 10973 10974 10974 10975 10975 10975 10975 10975 10975 10975 10975 10974 10974 10973 10971 10970 10970 10970 10968 10967 10967 10966 10966 10965 10963 10962 10959 10957 10956 10954 10953 10952 10950 10948 10946 10944 10942 10940 10938 10936 10933 10931 10929 10927 10925 10923 10921 10920 10919 10916 10914 10911 10908 10905 10901 10898 10894 10891 10889
10943 10944 10946 10948 10950 10953 10955 10956 10957 10959 10960 10961 10963 10964 10965 10966 10967 10968 10968 10969 10970 10971 10971 10971 10972 10972 10971 10972 10972 10972 10972 10973 10973 10973 10973 10973 10972 10972 10971 10970 10969 10968 10968 10968 10966 10965 10965 10964 10964 10963 10962 10960 10958 10956 10954 10953 10952 10950 10948 10946 10943 10941 10939 10937 10935 10933 10931 10929 10926 10924 10922 10920 10917 10916 10914 10913 10911 10909 10906 10903 10899 10896 10893 10889 10886
10941 10942 10943 10945 10948 10950 10952 10953 10954 10956 10957 10958 10960 10961 10963 10964 10964 10965 10966 10967 10967 10968 10968 10969 10969 10969 10969 10969 10969 10970 10970 10971 10971 10971 10971 10971 10970 10969 10969 10968 10966 10965 10965 10965 10964 10962 10962 10962 10961 10960 10960 10958 10956 10955 10953 10951 10950 10948 10945 10943 10941 10938 10936 10934 10932 10930 10928 10926 10924 10922 10920 10917 10914 10911 10909 10908 10907 10906 10904 10901 10897 10894 10891 10887 10883
10938 10940 10941 10943 10945 10947 10948 10950 10951 10952 10954 10955 10957 10959 10960 10961 10961 10962 10963 10964 10964 10965 10965 10965 10966 10966 10966 10966 10966 10967 10967 10968 10969 10969 10969 10969 10968 10967 10966 10965 10963 10963 10963 10962 10961 10960 10959 10959 10959 10958 10957 10956 10954 10952 10951 10949 10947 10945 10942 10940 10938 10936 10934 10931 10929 10927 10925 10923 10922 10920 10917 10914 10911 10907 10904 10902 10901 10900 10899 10897 10894 10891 10887 10884 10880
10935 10937 10938 10940 10942 10944 10945 10946 10947 10949 10951 10952 10954 10955 10956 10957 10958 10959 10960 10960 10961 10961 10962 10962 10962 10962 10963 10963 10963 10964 10964 10965 10966 10966 10967 10967 10966 10965 10964 10962 10961 10960 10960 10959 10958 10957 10957 10956 10956 10955 10954 10952 10951 10950 10948 10946 10944 10942 10939 10937 10935 10933 10931 10929 10926 10924 10921 10919 10917 10916 10915 10913 10909 10905 10901 10897 10894 10893 10892 10891 10889 10886 10883 10880 10876
10932 10933 10935 10937 10939 10941 10942 10943 10945 10946 10948 10949 10951 10952 10952 10954 10955 10956 10956 10957 10957 10958 10958 10958 10958 10958 10959 10960 10960 10961 10961 10962 10963 10964 10964 10964 10964 10963 10962 10960 10958 10957 10957 10956 10955 10954 10954 10953 10952 10951 10950 10949 10948 10946 10945 10943 10941 10939 10936 10934 10932 10929 10927 10925 10923 10921 10918 10915 10913 10911 10910 10908 10906 10903 10900 10895 10890 10887 10884 10883 10881 10880 10878 10876 10873
10928 10929 10931 10933 10935 10938 10939 10940 10942 10943 10945 10946 10947 10948 10949 10950 10951 10952 10953 10953 10953 10954 10954 10954 10955 10955 10955 10956 10957 10957 10958 10958 10960 10961 10961 10961 10961 10960 10959 10957 10955 10955 10954 10953 10952 10951 10951 10950 10949 10948 10947 10946 10945 10943 10942 10940 10937 10935 10933 10930 10928 10925 10923 10921 10920 10918 10916 10913 10909 10906 10904 10902 10900 10898 10895 10892 10888 10883 10879 10876 10873 10872 10871 10869 10866
10925 10926 10927 10929 10931 10934 10935 10938 10939 10940 10941 10942 10943 10944 10945 10946 10947 10949 10949 10949 10949 10950 10950 10950 10951 10951 10952 10953 10953 10954 10955 10955 10956 10958 10958 10958 10958 10958 10957 10954 10953 10952 10952 10950 10949 10948 10947 10947 10946 10945 10944 10943 10941 10940 10938 10936 10933 10931 10928 10926 10923 10921 10919 10917 10916 10915 10913 10910 10907 10903 10900 10898 10895 10893 10890 10887 10884 10881 10877 10872 10868 10865 10863 10861 10858
10920 10922 10923 10924 10926 10929 10932 10934 10936 10937 10938 10939 10939 10940 10941 10942 10944 10945 10945 10945 10946 10947 10947 10947 10947 10948 10949 10949 10950 10951 10952 10952 10953 10954 10955 10955 10955 10955 10954 10951 10950 10950 10949 10947 10946 10945 10944 10943 10942 10941 10940 10939 10938 10936 10934 10932 10930 10927 10924 10922 10919 10917 10916 10914 10912 10911 10909 10907 10904 10900 10897 10895 10892 10889 10886 10883 10880 10877 10874 10870 10866 10861 10858 10855 10852
10915 10917 10920 10921 10922 10924 10928 10930 10932 10932 10933 10935 10936 10936 10937 10938 10940 10941 10941 10942 10943 10943 10943 10943 10944 10945 10945 10945 10946 10947 10948 10949 10950 10951 10952 10952 10951 10951 10950 10948 10947 10947 10945 10943 10942 10941 10941 10940 10939 10937 10936 10935 10933 10932 10931 10929 10927 10924 10921 10919 10916 10914 10913 10911 10909 10907 10905 10902 10899 10897 10894 10891 10889 10885 10882 10879 10876 10872 10869 10866 10862 10858 10854 10850 10847
10909 10911 10914 10917 10918 10920 10923 10925 10926 10928 10929 10931 10932 10933 10934 10935 10936 10937 10938 10939 10939 10939 10939 10940 10940 10941 10941 10941 10942 10943 10944 10945 10947 10948 10948 10948 10948 10947 10946 10944 10943 10943 10942 10940 10938 10938 10937 10936 10935 10934 10932 10931 10930 10929 10928 10926 10924 10921 10918 10915 10913 10911 10909 10907 10904 10902 10900 10897 10895 10892 10889 10886 10883 10880 10877 10873 10870 10866 10863 10860 10856 10852 10849 10845 10841
10904 10906 10908 10912 10915 10917 10919 10920 10921 10923 10924 10926 10927 10928 10930 10931 10932 10933 10934 10934 10935 10936 10936 10936 10937 10937 10937 10937 10938 10939 10940 10942 10943 10944 10944 10944 10943 10942 10941 10940 10939 10939 10938 10936 10935 10934 10933 10932 10931 10930 10928 10927 10926 10926 10925 10923 10921 10919 10915 10912 10909 10906 10904 10902 10899 10897 10895 10892 10890 10886 10883 10880 10877 10874 10871 10867 10863 10860 10857 10853 10850 10846 10842 10839 10835
10900 10902 10904 10906 10910 10913 10914 10916 10917 10918 10920 10921 10922 10924 10925 10926 10928 10929 10929 10930 10931 10932 10932 10932 10933 10932 10932 10933 10933 10934 10936 10937 10938 10939 10939 10939 10938 10938 10937 10936 10935 10934 10933 10931 10930 10929 10929 10928 10927 10925 10924 10922 10922 10921 10920 10919 10918 10915 10913 10909 10905 10902 10899 10897 10894 10892 10890 10887 10884 10881 10877 10874 10871 10868 10864 10861 10857 10853 10850 10846 10843 10839 10835 10832 10829
10895 10897 10899 10901 10904 10907 10909 10911 10912 10914 10915 10916 10917 10919 10920 10922 10923 10925 10925 10926 10926 10927 10928 10928 10929 10928 10928 10929 10929 10930 10931 10932 10933 10934 10934 10933 10933 10933 10932 10932 10931 10929 10928 10926 10925 10924 10923 10923 10922 10920 10918 10917 10916 10915 10915 10914 10912 10910 10908 10905 10902 10898 10895 10892 10889 10887 10885 10882 10879 10875 10871 10868 10865 10861 10857 10854 10850 10846 10843 10839 10836 10832 10829 10826 10822
10889 10892 10894 10895 10897 10900 10902 10904 10907 10909 10910 10911 10912 10913 10915 10916 10918 10920 10921 10921 10922 10923 10923 10924 10924 10924 10924 10925 10926 10925 10926 10927 10928 10929 10928 10927 10927 10927 10927 10927 10925 10924 10923 10922 10920 10918 10918 10917 10916 10914 10912 10911 10909 10909 10908 10907 10906 10904 10902 10900 10897 10894 10890 10887 10884 10882 10879 10877 10873 10869 10866 10863 10859 10855 10851 10847 10844 10840 10836 10833 10830 10827 10823 10820 10817
10882 10886 10888 10889 10890 10892 10894 10897 10900 10903 10905 10906 10907 10907 10908 10910 10912 10914 10915 10916 10917 10918 10918 10919 10919 10919 10920 10921 10921 10920 10920 10921 10922 10923 10922 10921 10921 10922 10922 10921 10920 10919 10919 10917 10914 10913 10912 10911 10910 10908 10906 10904 10903 10901 10901 10900 10898 10897 10895 10893 10890 10887 10884 10881 10878 10876 10874 10871 10867 10864 10860 10857 10853 10849 10845 10842 10838 10834 10831 10827 10824 10820 10817 10813 10810
10875 10878 10881 10883 10885 10886 10888 10890 10893 10896 10898 10899 10900 10900 10902 10904 10907 10908 10909 10911 10912 10913 10913 10913 10913 10913 10915 10916 10915 10914 10914 10915 10916 10916 10916 10915 10915 10916 10917 10916 10914 10914 10914 10912 10909 10907 10906 10905 10904 10902 10900 10899 10896 10895 10893 10892 10891 10890 10888 10886 10883 10880 10878 10875 10873 10870 10867 10864 10861 10858 10855 10851 10847 10843 10840 10836 10833 10829 10825 10821 10818 10813 10809 10805 10802
10868 10871 10875 10877 10879 10881 10882 10883 10886 10889 10892 10892 10893 10893 10896 10898 10900 10901 10902 10905 10907 10907 10908 10908 10907 10908 10909 10910 10909 10909 10908 10908 10909 10910 10910 10909 10909 10910 10911 10910 10908 10908 10909 10907 10903 10901 10900 10900 10899 10897 10895 10893 10891 10889 10887 10886 10884 10882 10880 10878 10875 10873 10871 10869 10866 10863 10861 10857 10854 10852 10848 10845 10841 10837 10834 10831 10827 10823 10819 10815 10811 10806 10801 10798 10795
10860 10864 10867 10870 10872 10874 10874 10875 10878 10882 10884 10884 10885 10887 10890 10891 10892 10894 10896 10899 10901 10901 10902 10903 10902 10901 10902 10903 10903 10903 10902 10901 10901 10902 10903 10904 10904 10904 10904 10904 10903 10902 10903 10901 10897 10895 10896 10895 10894 10892 10891 10888 10886 10884 10882 10881 10878 10876 10873 10870 10868 10866 10864 10862 10859 10857 10854 10851 10848 10845 10841 10838 10835 10832 10829 10825 10821 10816 10812 10808 10803 10798 10794 10790 10787
10853 10855 10857 10860 10862 10864 10865 10867 10869 10872 10874 10875 10877 10880 10882 10882 10883 10887 10890 10893 10893 10893 10894 10895 10896 10895 10895 10896 10897 10897 10896 10894 10894 10896 10897 10898 10898 10897 10897 10898 10897 10896 10897 10895 10892 10891 10891 10890 10888 10887 10885 10883 10881 10879 10877 10875 10872 10870 10867 10864 10861 10859 10857 10855 10853 10850 10848 10846 10843 10839 10835 10832 10829 10826 10823 10818 10814 10809 10805 10801 10796 10791 10787 10784 10781
10847 10847 10848 10850 10852 10853 10855 10857 10859 10862 10865 10867 10870 10872 10873 10873 10875 10879 10882 10883 10883 10884 10886 10887 10889 10889 10888 10889 10890 10889 10888 10886 10887 10889 10891 10891 10891 10891 10891 10891 10891 10890 10890 10890 10888 10886 10885 10884 10884 10882 10880 10877 10875 10874 10872 10870 10867 10864 10862 10859 10856 10853 10851 10848 10846 10844 10842 10841 10838 10834 10831 10827 10823 10819 10816 10810 10805 10801 10798 10795 10790 10786 10782 10779 10775
10839 10840 10840 10842 10844 10845 10847 10849 10851 10853 10857 10860 10861 10863 10863 10863 10866 10870 10873 10873 10874 10876 10879 10880 10883 10883 10881 10881 10881 10880 10879 10879 10879 10882 10884 10885 10884 10884 10884 10885 10885 10885 10884 10884 10883 10881 10881 10880 10879 10877 10874 10871 10869 10868 10866 10864 10862 10860 10857 10854 10851 10848 10844 10841 10840 10838 10835 10834 10833 10828 10824 10821 10817 10812 10808 10802 10798 10794 10790 10787 10784 10780 10776 10772 10768
10832 10832 10832 10835 10837 10839 10839 10841 10844 10847 10850 10852 10852 10854 10855 10857 10859 10863 10865 10865 10866 10869 10871 10872 10874 10874 10873 10872 10873 10872 10870 10870 10872 10875 10877 10878 10877 10878 10878 10878 10879 10879 10878 10878 10877 10876 10876 10874 10873 10871 10869 10865 10863 10861 10860 10858 10856 10854 10852 10849 10846 10842 10837 10835 10834 10833 10830 10828 10826 10822 10817 10813 10809 10804 10800 10795 10791 10787 10783 10780 10776 10772 10767 10763 10760
10826 10825 10825 10828 10831 10833 10833 10836 10839 10841 10843 10844 10844 10846 10848 10850 10852 10855 10856 10857 10860 10863 10864 10864 10865 10866 10865 10864 10865 10865 10863 10862 10865 10867 10869 10870 10871 10872 10872 10872 10873 10873 10873 10872 10872 10871 10870 10868 10867 10865 10863 10859 10856 10854 10852 10850 10849 10847 10845 10842 10839 10835 10831 10828 10828 10827 10824 10821 10819 10815 10811 10806 10801 10797 10793 10789 10785 10781 10777 10772 10769 10764 10760 10756 10752
10820 10820 10820 10821 10823 10826 10827 10829 10832 10834 10833 10834 10835 10837 10839 10842 10844 10846 10847 10849 10853 10855 10855 10855 10855 10856 10857 10856 10857 10858 10858 10856 10856 10858 10860 10863 10865 10865 10866 10866 10867 10867 10866 10866 10866 10865 10863 10861 10861 10860 10857 10854 10850 10847 10845 10843 10842 10839 10837 10835 10832 10828 10825 10823 10822 10819 10817 10814 10811 10807 10804 10799 10794 10790 10787 10783 10780 10777 10772 10767 10762 10758 10754 10750 10745
10813 10815 10816 10816 10817 10819 10820 10822 10824 10824 10823 10824 10826 10829 10833 10836 10836 10837 10840 10842 10844 10845 10845 10845 10845 10846 10847 10847 10848 10851 10852 10850 10849 10849 10851 10854 10858 10859 10860 10860 10860 10859 10859 10860 10860 10858 10855 10855 10855 10854 10851 10848 10844 10840 10837 10836 10834 10832 10829 10827 10824 10822 10820 10818 10816 10813 10811 10807 10803 10799 10795 10792 10788 10785 10782 10778 10775 10772 10768 10763 10757 10753 10748 10743 10738
10806 10809 10810 10812 10813 10814 10814 10815 10815 10815 10816 10817 10820 10823 10827 10829 10828 10830 10834 10836 10835 10834 10834 10834 10837 10838 10837 10837 10840 10843 10844 10845 10845 10842 10842 10845 10849 10852 10853 10852 10851 10852 10853 10854 10853 10850 10848 10848 10849 10848 10844 10841 10837 10833 10830 10829 10827 10824 10822 10819 10817 10816 10814 10813 10810 10808 10805 10801 10797 10793 10790 10787 10783 10780 10777 10774 10771 10767 10762 10757 10752 10747 10742 10737 10732
10800 10802 10804 10806 10808 10809 10810 10809 10808 10808 10809 10810 10813 10817 10820 10821 10822 10825 10827 10827 10825 10825 10825 10825 10829 10831 10829 10828 10832 10835 10836 10838 10840 10838 10836 10837 10839 10842 10844 10844 10844 10845 10847 10847 10845 10842 10841 10842 10842 10840 10837 10834 10830 10826 10823 10822 10820 10818 10815 10812 10811 10810 10809 10808 10805 10803 10800 10797 10793 10789 10786 10782 10779 10775 10772 10769 10766 10761 10756 10751 10746 10741 10736 10731 10726
10793 10796 10798 10800 10801 10803 10804 10804 10804 10803 10803 10803 10805 10808 10810 10812 10815 10818 10818 10818 10818 10818 10817 10817 10821 10823 10821 10820 10822 10825 10827 10829 10830 10830 10830 10831 10832 10833 10835 10836 10837 10838 10840 10839 10836 10834 10834 10836 10836 10833 10831 10827 10823 10820 10817 10816 10814 10812 10809 10807 10806 10804 10803 10802 10800 10797 10794 10791 10787 10784 10780 10777 10774 10771 10768 10764 10760 10755 10750 10745 10740 10735 10731 10725 10720
10784 10788 10791 10793 10794 10796 10797 10798 10798 10799 10799 10799 10799 10800 10801 10804 10807 10809 10809 10810 10810 10809 10808 10808 10810 10812 10813 10812 10813 10814 10816 10818 10819 10820 10821 10824 10827 10828 10828 10827 10829 10831 10833 10831 10828 10827 10829 10830 10829 10828 10826 10822 10817 10814 10812 10810 10809 10807 10804 10802 10800 10799 10797 10795 10792 10790 10787 10784 10781 10778 10775 10773 10769 10766 10763 10759 10755 10750 10744 10739 10734 10730 10725 10720 10714
10775 10778 10782 10784 10785 10787 10789 10789 10790 10791 10793 10794 10795 10794 10795 10796 10798 10799 10801 10802 10802 10801 10800 10801 10801 10802 10803 10803 10803 10805 10807 10807 10808 10809 10811 10814 10819 10822 10822 10820 10821 10824 10824 10823 10822 10822 10824 10824 10824 10825 10825 10820 10817 10814 10810 10805 10803 10801 10798 10795 10793 10792 10791 10788 10785 10783 10781 10779 10777 10774 10771 10768 10765 10761 10758 10754 10749 10743 10738 10733 10729 10724 10719 10714 10708
10766 10768 10771 10774 10776 10777 10779 10779 10780 10781 10783 10786 10788 10789 10789 10789 10789 10791 10792 10793 10793 10794 10794 10793 10793 10793 10793 10792 10793 10796 10798 10798 10797 10799 10801 10804 10809 10813 10814 10814 10816 10817 10815 10815 10817 10817 10818 10819 10820 10821 10821 10819 10819 10817 10809 10800 10797 10795 10792 10788 10786 10785 10784 10782 10780 10779 10777 10775 10772 10770 10766 10763 10759 10756 10752 10748 10743 10737 10732 10728 10724 10719 10713 10708 10702
10757 10760 10762 10765 10767 10768 10769 10770 10770 10771 10773 10775 10778 10780 10781 10782 10782 10783 10784 10785 10786 10786 10786 10785 10784 10784 10783 10783 10785 10787 10789 10789 10790 10791 10792 10795 10800 10805 10807 10808 10809 10809 10808 10809 10811 10811 10814 10816 10816 10814 10814 10815 10814 10812 10805 10797 10792 10789 10786 10782 10780 10778 10777 10776 10775 10774 10772 10770 10767 10764 10761 10758 10754 10750 10746 10742 10737 10731 10727 10723 10718 10713 10707 10701 10694
10749 10751 10753 10756 10758 10760 10761 10762 10762 10763 10764 10765 10767 10769 10771 10773 10774 10775 10776 10777 10778 10779 10779 10778 10777 10777 10776 10777 10778 10780 10781 10782 10783 10785 10787 10789 10792 10797 10801 10802 10800 10800 10803 10805 10806 10809 10813 10814 10810 10807 10809 10809 10807 10804 10800 10794 10788 10783 10780 10777 10774 10773 10771 10771 10770 10768 10766 10764 10761 10758 10755 10752 10748 10745 10741 10736 10730 10726 10722 10717 10712 10706 10700 10694 10687
10741 10743 10745 10747 10749 10751 10753 10754 10754 10755 10756 10757 10758 10760 10761 10763 10765 10766 10768 10769 10770 10771 10771 10771 10771 10772 10772 10772 10773 10773 10773 10774 10776 10778 10781 10783 10785 10788 10792 10794 10794 10794 10797 10799 10801 10804 10808 10808 10804 10803 10803 10801 10798 10797 10794 10789 10783 10778 10774 10771 10769 10767 10766 10766 10765 10763 10760 10758 10755 10752 10749 10746 10743 10739 10735 10729 10725 10720 10716 10711 10705 10699 10694 10687 10681
10733 10735 10737 10739 10740 10741 10743 10745 10746 10747 10748 10749 10750 10751 10752 10754 10756 10758 10760 10762 10763 10763 10764 10765 10765 10766 10766 10766 10766 10766 10765 10766 10768 10772 10774 10776 10778 10781 10784 10786 10787 10787 10789 10792 10791 10792 10794 10796 10796 10797 10796 10792 10789 10788 10785 10781 10777 10772 10768 10765 10763 10762 10762 10761 10759 10757 10754 10752 10749 10746 10744 10740 10737 10733 10729 10723 10719 10714 10709 10704 10698 10692 10687 10682 10675
10724 10726 10728 10730 10732 10733 10735 10736 10738 10740 10741 10741 10742 10743 10744 10746 10748 10751 10753 10755 10755 10756 10757 10758 10758 10759 10759 10758 10758 10758 10759 10759 10762 10765 10767 10768 10770 10772 10772 10775 10777 10779 10783 10788 10786 10782 10783 10785 10786 10786 10786 10783 10780 10778 10775 10774 10771 10766 10762 10759 10758 10757 10756 10755 10753 10751 10749 10746 10744 10740 10738 10735 10731 10727 10722 10717 10712 10708 10703 10697 10691 10686 10682 10676 10669